JINJUSat 1B
1 63210U 25052A 26071.67159861 .00019529 00000-0 66725-3 0 9990
2 63210 97.4115 328.4626 0005433 76.5028 283.6818 15.30319741 55320
NUSHSAT 1
1 63211U 25052B 26071.65159157 .00022759 00000-0 73628-3 0 9996
2 63211 97.4082 328.7301 0005546 74.7656 285.4199 15.32052661 55340
TEVEL2-4
1 63213U 25052D 26071.70069661 .00021009 00000-0 70127-3 0 9992
2 63213 97.4016 328.1232 0004792 87.6329 272.5460 15.31063663 55338
TEVEL2-5
1 63214U 25052E 26071.64652685 .00020612 00000-0 69080-3 0 9995
2 63214 97.4014 328.0409 0004756 90.1067 270.0719 15.30936720 55321
TEVEL2-6
1 63215U 25052F 26071.65643196 .00021722 00000-0 72864-3 0 9991
2 63215 97.4016 328.0367 0004859 90.3008 269.8790 15.30896934 55325
TEVEL2-1
1 63217U 25052H 26071.65549193 .00020565 00000-0 69915-3 0 9992
2 63217 97.3990 327.7649 0004828 99.2965 260.8822 15.30473039 55315
TEVEL2-3
1 63218U 25052J 26071.65300071 .00020987 00000-0 71257-3 0 9993
2 63218 97.3991 327.7743 0004909 99.3774 260.8022 15.30510578 55313
TEVEL2-2
1 63219U 25052K 26071.65614720 .00020729 00000-0 70464-3 0 9996
2 63219 97.3989 327.7668 0004811 100.3144 259.8639 15.30475266 55319
TEVEL2-9
1 63237U 25052AD 26071.64787713 .00019147 00000-0 68604-3 0 9993
2 63237 97.4057 327.3223 0008172 115.8360 244.3723 15.28754273 55266
TEVEL2-7
1 63238U 25052AE 26071.67260300 .00018080 00000-0 65236-3 0 9998
2 63238 97.4056 327.2987 0008301 116.0056 244.2039 15.28535397 55264
TEVEL2-8
1 63239U 25052AF 26071.67966764 .00018175 00000-0 65622-3 0 9990
2 63239 97.4055 327.2862 0008275 116.8914 243.3173 15.28512652 55265
HYDRA-W
1 63490U 25052BL 26071.64832816 .00215846 00000-0 21942-2 0 9996
2 63490 97.3931 332.9453 0009173 103.1709 257.0574 15.64434536 55658
HADES-ICM (SO-125)
1 63492U 25052BN 26071.65340648 .00144463 00000-0 19096-2 0 9999
2 63492 97.3940 332.2098 0009178 105.5033 254.7237 15.57805361 55604
Ten-Koh2
1 66174U 25241A 26071.83492074 .00009419 00000-0 41005-3 0 9997
2 66174 51.6355 57.8859 0006085 183.2990 176.7948 15.22866996 21430
SPIRONE
1 66657U 25274H 26071.76687657 .00003270 00000-0 31886-3 0 9999
2 66657 97.7438 2.4929 0011755 343.6979 16.3861 14.93096073 15830
K-HERO
1 66660U 25274L 26071.73239371 .00002955 00000-0 28538-3 0 9995
2 66660 97.7439 2.5467 0013696 346.5021 13.5831 14.93545728 15831
SNUGLITE-III DURI
1 66661U 25274M 26071.72407115 .00002656 00000-0 25647-3 0 9994
2 66661 97.7437 2.5539 0014402 346.9571 13.1275 14.93631194 15831
SilverSat
1 66909U 98067XV 26071.18756588 .00230471 00000-0 15879-2 0 9993
2 66909 51.6249 52.0679 0005428 93.6368 266.5252 15.73352402 15581
SAKHACUBE-CHOLBON
1 67290U 25313AU 26071.77098457 .00011537 00000-0 49311-3 0 9999
2 67290 97.4001 148.1183 0008858 342.5144 17.5786 15.22976758 11294
RS95S (QMR-KWT-2)
1 67291U 25313AV 26071.75777954 .00016676 00000-0 69819-3 0 9998
2 67291 97.4000 148.1350 0008490 340.9231 19.1687 15.23594037 11296
IO-86
1 40931U 25360.30710720 .00000000 00000-0 12800-3 0 00
2 40931 6.0006 332.5373 0012733 338.8432 8.1437 14.79075515 01
